Weather in Unda

Russia / Zabaykalsky Krai     51°42′39″N   116°55′04″E
temp.,
°C
wind,
m/s
gust,
m/s
humid.,
%
clouds,
%
prec.,
mm/h
press.,
hPa
HPBL,
m
21 june, mon
mon2100:00+10nne11939 0.1 101010
03:00+9ese119423 0.1 101110
06:00+10e119423 0.0 101210
09:00+15e11805 0.0 1012402
12:00+20se236060 0.0 10111132
15:00+22s125165 0.1 10091425
18:00+20wsw2365100 0.1 1009409
21:00+16w0076100 0.3 101011
22 june, tue
tue2200:00+12ssw2287100 0.0 101111
03:00+11s11883 0.0 101211
06:00+11sse11885 0.0 101213
09:00+18ssw12705 0.0 1012312
12:00+22sw22559 0.1 10111303
15:00+22ssw33539 0.1 10091486
18:00+23ssw125558 0.0 10091007
21:00+17sse117554 0.0 100911
23 june, wed
wed2300:00+14s1184100 0.0 101112
03:00+15sse2273100 0.0 101118
06:00+14nne228899 0.6 101118
09:00+17wsw1279100 0.6 1011161
12:00+18ssw2376100 0.2 1010247
15:00+17s258060 0.9 1010259
18:00+21sse247279 1.5 1008321
21:00+15nnw4693100 3.7 1010175
24 june, thu
thu2400:00+13e21955 1.9 100913
03:00+12ese00955 2.0 100911
06:00+13ene119789 0.7 100925
09:00+17ne118610 0.8 1008348
12:00+22ssw126736 0.1 10061021
15:00+23n226495 1.4 10051084
18:00+22n23725 1.6 1003373
21:00+17nne1181100 2.3 100411
25 june, fri
fri2500:00+15ene11855 0.0 100411
03:00+13ese00906 0.0 100510
06:00+13n11902 0.0 100515
09:00+19e12715 0.0 1004526
12:00+23ese145612 0.0 10031515
15:00+23sse126186 1.4 1003786
18:00+23nnw247025 1.1 1002735
21:00+17nnw339142 1.6 100448